STARLINK-11113, 59947

Orbit data source: Space-Track

STARLINK-11113, 59947 is a payload satellite owned by SpaceX/Seattle (US) in LEO that was launched on Wed, 05 Jun 2024 UTC via an FALCON 9 launch vehicle from the Air Force Eastern Test Range (AFETR). Payload-class satellites include a variety of spacecraft equipped with specific instruments for various scientific and technological missions. These include communications satellites like Starlink; space stations such as the ISS; scientific satellites like the Hubble; Earth observation satellites from companies like Planet Labs, Umbra, and HawkEye 360; GPS; miniature CubeSats for education and research; and military/defense satellites.

Loading next visibility...
Identifier
59947, 2024-107C
Orbit
LEO
Last TLE update
14 hours ago
Origin
Manufacturer
SpaceX/Seattle
Mission
Operational spacecraft
Bus & Motor
STARLINK V2M, Unknown motor
Mass
730 kg wet, ~700 kg dry
Launch date (UTC)
2024-06-05 (1 year ago)
Launch vehicle
FALCON 9
Launch site
Air Force Eastern Test Range (AFETR)
Object type
Payload
Rocket body
Debris
Shape & HBR
Unknown
Radar Cross Section
Large (>1 m²)

Expand to show TLE details & history

TLE from 14 hours ago
0 STARLINK-11113
1 59947U 24107C   25181.83084136 -.00000710  00000-0 -10026-5 0  9992
2 59947  53.1604  52.4627 0000909  83.4559 276.6563 15.69705713 62594
Epoch: 2025-06-30T19:56Z
TLE epoch observation values (Epoch: 2025-06-30T19:56:24.693Z)
Latitude
0.00003°
Longitude
-165.77518°
Altitude
360.583 km
Speed
7.694 km/s
True Right ascension
03h 29m 51s
True Declination
0° 00' 00"
Sunlit
Object was in daylight at epoch
Visualization orbit readout
Latitude
45.85174°
Longitude
-38.82831°
Altitude
364.078 km
Speed
7.697 km/s
Apparent Right ascension
10h 52m 18s
Apparent Declination
4° 36' 33"
Sunlit
Object is in daylight
Visualization observer readout
Local Sidereal Time
21:49:37
Azimuth
338.331° N
Elevation
-43.199°
Doppler factor
1
Orbital elements
Apogee altitude
360.612 km
Perigee altitude
359.387 km
Semi-major axis
6,738.137 km
Eccentricity
0.00009
Inclination
53.1604°
RAAN
52.4627°
Arg. of periapsis
83.4559°
True anomaly
Unknown
Mean anomaly
276.6563°
Eccentric anomaly
Unknown
Mean motion
3.92404 °/min
Orbital period
91.74 mins
BSTAR
-0.0000010026
Loading maneuver chart data...
Loading SW <> Apogee altitude chart data...
Loading historical data...
Loading historical data...
Loading historical data...
Loading historical data...
Loading historical data...
Loading historical data...
Loading historical data...

STARLINK-11113 Visibility forecast

Observer location: undefined°, undefined°

Span
Click to sort rows by Start time (UTC) header in descending order
Start Az.
Max El. time (UTC)
Max El. Az.
Max El.
End time (UTC)
End Az.
4 mins2025-07-01 17:30:13.508Z193.989° SSW2025-07-01 17:32:13.508Z136.221° SSE28.524°2025-07-01 17:34:13.508Z74.993° E
|